Content
SEND FEEDBACK

Daily
Averages
Monthly
Summary
United States of America

BAYOU LA BATRE, ALABAMA


Home > North America > United States > Alabama
Elevation: 0 feet     Latitude: 30 23N     Longitude: 088 14W

WEATHER
 
SELECT A DAY
Number of Records: 195,915;   Date Range: 8/14/97 - 9/3/14
 
SHARE

PRINT THIS DATA

[ ← Previous Day ]
WEATHER ALMANAC - JANUARY 19, 2013
[ Next Day → ]
[ °C ]   °F
Weather ElementAverageHighLow
Temperature47.7 °F64.9 °F (12:53 pm)36 °F (1:53 am)
Dewpoint38.8 °F45 °F (3:53 pm)33.1 °F (1:53 am)
Humidity74.3 %100 % (10:04 pm)43 % (11:53 am)
Barometer30.32 in30.40 in (8:53 am)30.26 in (2:53 pm)
Wind Speed2.6 mph8.1 mph (2:53 pm)
Weather ElementAverage
Visibility8.7 mi
Wind DirectionESE (111.7 °)

Weather ElementTotal
Precipitation---
Heating Degree Days14.6 (Base 65)
Growing Degree Days0.5 (Base 50)
Averaged from 24 records on January 19, 2013
WEATHER CONDITIONS BREAKOUT
WIND DIRECTION BREAKOUT
WEATHER BY HOUR - JANUARY 19, 2013
[ °C ]   °F
Local TimeTemperatureDewpointHumidityBarometerVisibilityWind DirectionWind SpeedGust SpeedPrecipitationEventsConditions
1:53 AM36.0 °F33.1 °F89 %30.39 in10.0 miNorth (350°)3.5 mphClear
2:53 AM37.0 °F34.0 °F89 %30.38 in10.0 miNorth (360°)4.6 mphOvercast
3:53 AM39.9 °F36.0 °F86 %30.37 in10.0 miNorth (360°)3.5 mphOvercast
4:53 AM39.0 °F34.0 °F82 %30.37 in10.0 miCalmMostly Cloudy
5:53 AM37.0 °F33.1 °F86 %30.37 in10.0 miNorth (360°)3.5 mphClear
6:53 AM37.0 °F33.1 °F86 %30.38 in10.0 miNorth (350°)3.5 mphClear
7:53 AM42.1 °F35.1 °F76 %30.39 in10.0 miNE (40°)5.8 mphPartly Cloudy
8:53 AM48.9 °F37.0 °F64 %30.40 in10.0 miNE (40°)5.8 mphClear
9:53 AM55.9 °F39.0 °F53 %30.39 in10.0 miNE (50°)6.9 mphClear
10:53 AM61.0 °F39.9 °F46 %30.37 in10.0 miCalmClear
11:53 AM64.0 °F41.0 °F43 %30.34 in10.0 miNW (320°)3.5 mphClear
12:53 PM64.9 °F42.1 °F43 %30.30 in10.0 miVariable3.5 mphClear
1:53 PM64.0 °F42.1 °F45 %30.27 in10.0 miCalmClear
2:53 PM63.0 °F44.1 °F50 %30.26 in10.0 miSSE (150°)8.1 mphClear
3:53 PM60.1 °F45.0 °F57 %30.27 in10.0 miSouth (170°)5.8 mphClear
4:53 PM55.9 °F44.1 °F64 %30.26 in10.0 miSE (130°)3.5 mphClear
5:53 PM51.1 °F44.1 °F77 %30.27 in10.0 miCalmClear
6:53 PM46.0 °F42.1 °F86 %30.28 in10.0 miCalmClear
7:53 PM43.0 °F39.9 °F89 %30.27 in10.0 miCalmClear
8:53 PM43.0 °F41.0 °F93 %30.27 in10.0 miCalmClear
9:50 PM39.2 °F37.4 °F93 %30.26 in1.5 miCalmClear
9:53 PM39.9 °F37.9 °F93 %30.27 in1.0 miCalmClear
10:04 PM39.2 °F39.2 °F100 %30.26 in3.0 miCalmClear
11:53 PM37.9 °F36.0 °F93 %30.28 in4.0 miCalmClear
Hourly data recorded from KPQL, located miles away from Bayou La Batre, Alabama







STORIES FROM OUR PARTNERS